[[{"header":{"parameterUnit":"m.s-1","parameterCategory":1,"la1":30.2991,"la2":30.254,"lo1":-89.0895,"lo2":-89.0444,"dy":0.0017,"dx":0.0017,"nx":28,"ny":28,"refTime":"2025-07-08T09:00:00:Z","depth":0,"parameterNumber":2,"parameterNumberName":"U-component_of_WINDS"},"data":[0,0,0,0,0,0,0,0,0,0,0,0,0,0,0,0,0,0,0,0,0,0,0,0,0,0,0,0,0,0,0,0,0,0,0,0,0,0,0,0,0,0,0,0,0,0,0,0,0,0,0,0,0,0,0,0,0,0,3.5072,3.5073,0,3.5199,3.5201,3.5202,3.5137,3.5133,3.513,3.5127,3.5268,3.5275,3.5282,0,0,0,0,0,0,0,0,0,0,0,0,0,3.4781,3.4787,3.5071,3.5073,3.5075,3.5199,3.5201,3.5202,3.5137,3.5133,3.5129,3.5125,3.5266,3.5274,3.5283,0,0,0,0,0,0,0,0,0,0,0,0,0,3.4908,3.4789,3.5071,3.5057,3.5057,3.5198,3.5201,3.5203,3.5138,3.5133,3.5128,3.5123,3.5263,3.5274,3.5284,3.545,0,0,3.5316,3.532,0,0,0,0,0,0,0,0,3.4901,3.4919,3.5057,3.5058,3.5058,3.5146,3.515,3.5286,3.514,3.5108,3.5127,3.5121,3.5233,3.5245,3.5281,3.5457,3.5463,3.5317,3.5323,3.5327,3.533,0,0,0,0,0,0,0,3.4892,3.4913,3.5122,3.506,3.506,3.5047,3.506,3.5176,3.5198,3.511,3.5106,3.5121,3.5232,3.5271,3.5284,3.5465,3.5316,3.5326,3.5332,3.5336,3.5782,3.5787,0,0,0,0,0,0,3.4883,3.4906,3.5118,3.5126,3.4965,3.5057,3.507,3.5124,3.5196,3.5202,3.5125,3.5118,3.5256,3.5272,3.5288,3.5485,3.5327,3.5337,3.5343,3.5776,3.5783,3.5789,0,0,0,0,0,0,3.4877,3.4902,3.5113,3.5015,3.5041,3.5067,3.5127,3.5129,3.5167,3.5207,3.5212,3.516,3.5252,3.5274,3.5409,3.5489,3.5342,3.5351,3.577,3.5778,3.5786,3.588,0,0,0,0,0,0,3.4869,3.4901,3.4962,3.5017,3.5046,3.5229,3.5132,3.5135,3.5184,3.5175,3.5241,3.5248,3.525,3.5394,3.5419,3.55,3.5359,3.5763,3.5774,3.5783,3.587,3.5891,3.5909,0,0,0,0,0,3.4859,3.4986,3.4965,3.4991,3.5122,3.5233,3.525,3.5247,3.5191,3.5253,3.5279,3.5245,3.5477,3.5408,3.5437,3.5522,3.5758,3.577,3.5783,3.5862,3.5887,3.5908,0,0,0,0,0,0,3.4943,3.4993,3.497,3.5118,3.5172,3.5222,3.53,3.5275,3.5348,3.5337,3.5334,3.535,3.5489,3.552,3.5443,3.5686,3.5609,3.5628,3.5659,3.5684,3.5702,3.569,3.5368,0,0,0,0,0,3.4979,3.5061,3.5102,3.5229,3.5257,3.5274,3.5323,3.5315,3.5372,3.5395,3.5431,3.549,3.5575,3.5632,3.5714,3.5876,3.5889,3.5949,3.5968,3.5984,3.5999,3.6085,3.6111,3.5831,3.583,3.583,0,0,3.5054,3.5091,3.5144,3.5247,3.5287,3.5375,3.5294,3.5391,3.5456,3.5411,3.5538,3.5568,3.5634,3.5782,3.5849,3.5812,3.608,3.6,3.6012,3.6019,3.61,3.6127,3.6151,3.5839,3.5838,3.5836,0,0,3.5233,3.5271,3.5379,3.542,3.5481,3.5492,3.5518,3.5573,3.5588,3.5716,3.5683,3.5764,3.5912,3.5959,3.6003,3.6201,3.6172,3.6229,3.6328,3.6411,3.6433,3.6453,3.652,3.6545,3.6245,3.6245,3.6245,0,3.5319,3.5446,3.5439,3.5536,3.5583,3.5543,3.5653,3.5696,3.5782,3.5816,3.5773,3.5956,3.5998,3.6155,3.6203,3.6242,3.6271,3.6219,3.643,3.645,3.6468,3.6532,3.6558,3.6251,3.625,3.625,3.6249,0,3.5547,3.5636,3.5717,3.5795,3.5852,3.5956,3.5967,3.6025,3.6015,3.6031,3.6162,3.6211,3.63,3.6338,3.6331,3.6495,3.6469,3.6429,3.6351,3.6501,3.6561,3.6586,3.626,3.6257,3.6256,3.6254,0,0,3.578,3.5853,3.5882,3.5916,3.5981,3.6051,3.6156,3.6239,3.6287,3.635,3.6436,3.6563,3.6524,3.6574,3.6572,3.6646,3.6796,3.6596,3.6598,3.6628,3.6977,3.7004,3.7033,3.6779,3.6784,3.6788,3.697,0,3.596,3.6135,3.6132,3.6296,3.6378,3.6343,3.6433,3.6484,3.6503,3.6578,3.6601,3.6688,3.6634,3.6663,3.6735,3.6762,3.6865,3.675,3.6859,3.6863,3.6838,3.7065,3.7093,3.7263,3.6994,3.6999,3.7002,0,3.6193,3.6257,3.6428,3.6478,3.6513,3.6593,3.6668,3.6741,3.6799,3.6808,3.6863,3.6849,3.6956,3.6878,3.7026,3.6948,3.6994,3.7014,3.7021,3.7028,3.6938,3.7074,3.7318,3.7342,3.7039,3.7036,3.7034,0,3.634,3.6471,3.6588,3.662,3.6684,3.674,3.6771,3.6823,3.6873,3.6942,3.6974,3.7056,3.71,3.7165,3.7175,3.7117,3.7323,3.7246,3.7333,3.7333,3.7374,3.7371,3.7625,3.7412,3.7411,3.7411,3.741,0,3.6539,3.6644,3.6655,3.6727,3.6844,3.6842,3.6959,3.6985,3.7032,3.7111,3.7089,3.7164,3.7174,3.7252,3.7262,3.7381,3.7403,3.7414,3.7414,3.7413,3.7411,3.744,3.7427,3.7417,3.7416,3.7415,3.7413,0,3.6721,3.6733,3.6858,3.6907,3.6923,3.7006,3.705,3.712,3.7138,3.7237,3.7261,3.7289,3.738,3.7397,3.7506,3.7512,3.7654,3.7645,3.7632,3.763,3.7714,3.7705,3.7993,3.8029,3.7795,3.7798,3.78,0,3.6844,3.6923,3.698,3.7028,3.706,3.714,3.719,3.7193,3.7246,3.7318,3.738,3.7468,3.7537,3.7686,3.7718,3.7801,3.7792,3.7887,3.7804,3.78,3.7788,3.7782,3.7789,3.7901,3.7904,3.7906,3.7908,0,3.706,3.7062,3.7132,3.7205,3.7264,3.7323,3.7379,3.7422,3.7432,3.7494,3.7584,3.7639,3.7748,3.7836,3.7918,3.7953,3.7933,3.7934,3.7958,3.7955,3.7943,3.7947,3.7671,3.7926,3.7925,3.7923,3.7922,3.7921,3.7214,3.7281,3.733,3.741,3.7452,3.7504,3.7571,3.7596,3.767,3.7756,3.7756,3.7854,3.7912,3.802,3.806,3.814,3.811,3.8145,3.8153,3.8161,3.8167,3.7934,3.8156,3.8155,3.8155,3.8154,3.8154,0,3.7425,3.7455,3.7528,3.7604,3.7668,3.7641,3.7702,3.7757,3.7842,3.7896,3.7965,3.8069,3.8154,3.8193,3.8277,3.8334,3.8326,3.8355,3.8349,3.8357,3.8191,3.8159,3.8359,3.8359,3.8359,3.8359,3.8359,3.8359,3.7541,3.7653,3.7661,3.7795,3.7826,3.7918,3.7955,3.8004,3.8046,3.8162,3.8231,3.8255,3.8304,3.8391,3.8469,3.8479,3.8509,3.8542,3.8547,3.839,3.8369,3.8349,3.8319,3.855,3.855,3.8706,3.8708,3.8709]},{"header":{"parameterUnit":"m.s-1","parameterCategory":1,"la1":30.2991,"la2":30.254,"lo1":-89.0895,"lo2":-89.0444,"dy":0.0017,"dx":0.0017,"nx":28,"ny":28,"refTime":"2025-07-08T09:00:00:Z","depth":0,"parameterNumber":3,"parameterNumberName":"V-component_of_WINDS"},"data":[0,0,0,0,0,0,0,0,0,0,0,0,0,0,0,0,0,0,0,0,0,0,0,0,0,0,0,0,0,0,0,0,0,0,0,0,0,0,0,0,0,0,0,0,0,0,0,0,0,0,0,0,0,0,0,0,0,0,3.549,3.549,0,3.5452,3.5452,3.5452,3.5371,3.5369,3.5367,3.5366,3.5326,3.5326,3.5327,0,0,0,0,0,0,0,0,0,0,0,0,0,3.5489,3.5489,3.549,3.5489,3.5489,3.5452,3.5452,3.5451,3.5371,3.5369,3.5367,3.5365,3.5326,3.5326,3.5327,0,0,0,0,0,0,0,0,0,0,0,0,0,3.5474,3.549,3.549,3.5444,3.544,3.5453,3.5452,3.5451,3.5371,3.5369,3.5366,3.5364,3.5326,3.5326,3.5327,3.5381,0,0,3.5329,3.533,0,0,0,0,0,0,0,0,3.5475,3.5474,3.5452,3.5448,3.5443,3.5414,3.5437,3.5428,3.5372,3.5397,3.5366,3.5363,3.5357,3.5355,3.5353,3.5379,3.5377,3.5329,3.533,3.533,3.533,0,0,0,0,0,0,0,3.5476,3.5476,3.5475,3.5451,3.5446,3.5425,3.542,3.5435,3.5391,3.5395,3.5389,3.5386,3.5354,3.5353,3.5352,3.5376,3.5329,3.533,3.533,3.5331,3.5439,3.5442,0,0,0,0,0,0,3.5484,3.5477,3.5476,3.5474,3.5453,3.5427,3.5422,3.5425,3.5391,3.5383,3.5388,3.5382,3.5353,3.5351,3.535,3.5407,3.533,3.5331,3.5331,3.5437,3.544,3.5442,0,0,0,0,0,0,3.5485,3.5485,3.5478,3.5474,3.5471,3.543,3.5435,3.5426,3.5424,3.5386,3.5377,3.5395,3.5351,3.5349,3.5373,3.5404,3.5331,3.5332,3.5434,3.5438,3.5441,3.5523,0,0,0,0,0,0,3.5485,3.5486,3.5506,3.5475,3.5472,3.5502,3.5437,3.5427,3.5426,3.5418,3.539,3.5383,3.5349,3.5372,3.5373,3.5404,3.5332,3.5431,3.5436,3.544,3.5517,3.5529,3.5539,0,0,0,0,0,3.5485,3.5531,3.5508,3.5508,3.5497,3.5504,3.5502,3.5462,3.5429,3.5448,3.5423,3.5384,3.5402,3.5375,3.5376,3.5407,3.5429,3.5434,3.544,3.5512,3.5527,3.5539,0,0,0,0,0,0,3.5568,3.5526,3.55,3.5537,3.5525,3.549,3.5514,3.548,3.5476,3.5469,3.5419,3.5414,3.5443,3.5428,3.5399,3.5455,3.5408,3.5414,3.5463,3.5477,3.5487,3.5489,3.5333,0,0,0,0,0,3.559,3.56,3.5564,3.56,3.5595,3.5556,3.5558,3.5528,3.5513,3.5507,3.5484,3.547,3.5471,3.5474,3.5474,3.5516,3.5506,3.5537,3.5548,3.5558,3.5562,3.5579,3.5591,3.5461,3.5461,3.5461,0,0,3.5637,3.5616,3.5625,3.5616,3.5603,3.5613,3.5552,3.5566,3.5572,3.5509,3.5528,3.5511,3.5492,3.5524,3.5537,3.5512,3.5596,3.5565,3.5572,3.5572,3.5586,3.5598,3.5609,3.5464,3.5464,3.5463,0,0,3.5726,3.5713,3.5739,3.5727,3.5708,3.5681,3.5688,3.5658,3.5644,3.5663,3.5615,3.5622,3.5627,3.5614,3.5609,3.5691,3.5653,3.5693,3.5749,3.5766,3.5776,3.5785,3.581,3.582,3.5699,3.5699,3.5699,0,3.5785,3.5799,3.5758,3.5773,3.5769,3.5714,3.5739,3.5729,3.5711,3.5709,3.5682,3.5686,3.567,3.5695,3.5715,3.5714,3.5718,3.5694,3.5778,3.5786,3.5794,3.5817,3.5828,3.5703,3.5703,3.5702,3.5702,0,3.5871,3.5881,3.5906,3.5888,3.5888,3.5909,3.5869,3.5873,3.5844,3.582,3.5838,3.5817,3.581,3.5815,3.5787,3.5836,3.582,3.5787,3.5738,3.5812,3.5832,3.5842,3.571,3.5708,3.5707,3.5706,0,0,3.6009,3.5968,3.5977,3.5967,3.5941,3.5948,3.5966,3.5959,3.5961,3.5951,3.5962,3.5968,3.5935,3.5929,3.5899,3.5915,3.5976,3.5878,3.5877,3.5894,3.6024,3.6046,3.6058,3.5952,3.5954,3.5955,3.6024,0,3.6088,3.6116,3.6078,3.6113,3.612,3.6067,3.6082,3.6067,3.6045,3.6046,3.6022,3.6024,3.5984,3.5979,3.5993,3.5966,3.6001,3.5961,3.5959,3.596,3.5961,3.6069,3.6094,3.6159,3.6033,3.6034,3.6035,0,3.6184,3.6177,3.6213,3.6182,3.6183,3.6197,3.6186,3.619,3.6171,3.6153,3.6146,3.611,3.6123,3.6079,3.6094,3.6068,3.6065,3.6052,3.6053,3.6048,3.5999,3.6063,3.618,3.6188,3.6048,3.6047,3.6046,0,3.6275,3.6275,3.6295,3.6289,3.6255,3.6266,3.6252,3.6231,3.6228,3.6219,3.6216,3.6209,3.6204,3.6198,3.616,3.6132,3.6179,3.6132,3.6162,3.6163,3.6171,3.617,3.6285,3.6177,3.6176,3.6176,3.6176,0,3.6365,3.6388,3.6335,3.6347,3.6371,3.6328,3.6351,3.6332,3.6314,3.6319,3.6275,3.6281,3.6233,3.6233,3.6204,3.6219,3.6218,3.6202,3.6193,3.6204,3.6205,3.6199,3.6192,3.6179,3.6178,3.6178,3.6177,0,3.647,3.6436,3.6453,3.642,3.6412,3.643,3.64,3.6409,3.6384,3.6392,3.6391,3.6352,3.635,3.6313,3.6304,3.6284,3.6309,3.6294,3.6315,3.6308,3.6338,3.6334,3.6449,3.646,3.6349,3.635,3.6351,0,3.6527,3.6543,3.6511,3.6512,3.65,3.6502,3.6499,3.6457,3.6455,3.6434,3.6445,3.6439,3.6432,3.6431,3.6401,3.6393,3.6374,3.6415,3.6372,3.6381,3.6369,3.6367,3.6367,3.6423,3.6424,3.6425,3.6426,0,3.6631,3.6613,3.6611,3.6602,3.6599,3.659,3.6578,3.6581,3.6535,3.6535,3.6533,3.6527,3.6517,3.6511,3.6497,3.6481,3.6445,3.6441,3.6446,3.6455,3.6465,3.6455,3.6335,3.6437,3.6436,3.6435,3.6435,3.6434,3.6711,3.6721,3.6699,3.6697,3.6684,3.6673,3.6678,3.6654,3.6652,3.664,3.6616,3.6616,3.6594,3.6572,3.6559,3.6557,3.6536,3.6545,3.6547,3.6549,3.6553,3.6469,3.6555,3.6555,3.6555,3.6554,3.6554,0,3.6808,3.6792,3.6791,3.6774,3.6772,3.6741,3.6725,3.6725,3.6726,3.6709,3.6703,3.6699,3.6692,3.6661,3.6651,3.6655,3.6638,3.6654,3.6651,3.6647,3.6575,3.6569,3.6667,3.6667,3.6667,3.6667,3.6667,3.6667,3.6859,3.6873,3.6853,3.686,3.6843,3.6843,3.6836,3.6825,3.6811,3.6809,3.6803,3.6783,3.676,3.6747,3.6739,3.673,3.6726,3.6746,3.6731,3.6663,3.6652,3.6642,3.6636,3.6747,3.6747,3.6803,3.6804,3.6804]}]]